Wind_Speed
30 30 28 28 27 27 28 27 27 25 26 27 30 31 31 32 33 35 36 37 39 40 42 44 45 46 48 49 49 50 50 51 52 53 54 56 57 59 60 62 64 66 68 70
31 30 30 29 27 27 27 27 27 27 26 28 31 32 34 35 35 36 38 39 41 43 44 46 47 48 49 50 50 51 52 53 54 55 56 58 59 61 63 64 66 68 70 72
30 30 30 29 26 27 27 27 28 28 28 30 31 33 35 36 38 38 39 41 42 44 46 47 48 49 50 50 51 52 53 54 56 57 58 60 62 63 65 67 68 70 71 72
29 30 31 27 26 27 28 27 29 29 30 31 33 34 35 37 38 40 41 43 44 46 47 48 49 50 50 51 52 53 55 56 57 59 60 62 64 65 67 69 70 71 73 73
30 31 30 28 27 27 28 28 29 30 32 33 34 35 36 37 40 41 42 44 45 46 47 48 49 50 51 52 53 54 55 57 59 60 62 64 65 67 69 70 71 73 73 74
31 32 32 28 28 29 30 30 29 31 32 33 35 36 37 39 41 43 44 45 47 48 48 49 50 51 52 53 54 55 57 59 60 62 64 66 67 69 71 72 73 73 74 74
31 32 31 28 28 29 31 31 32 32 33 34 36 38 39 41 43 44 46 47 48 49 49 50 51 52 53 54 56 57 59 60 62 64 66 67 69 71 72 73 73 74 74 73
32 33 30 29 30 31 33 34 34 35 36 37 38 40 41 43 45 46 47 48 49 49 50 51 52 53 54 56 57 59 60 62 64 65 68 70 71 73 74 74 74 74 74 72
32 33 32 32 33 34 35 36 36 38 39 40 41 42 44 45 46 47 48 49 49 50 51 52 53 54 56 57 59 60 62 63 65 67 69 71 73 74 75 75 75 75 73 70
33 33 33 34 35 36 37 38 39 40 41 42 43 44 45 46 46 47 48 49 50 51 51 53 54 56 58 59 61 62 64 66 67 69 71 73 74 75 76 75 75 73 70 67
35 34 36 36 38 39 39 40 41 42 43 44 44 45 45 46 47 48 49 50 50 51 53 54 56 58 59 61 63 64 66 68 70 72 73 74 75 76 75 74 73 71 68 65
35 36 38 39 39 40 41 42 42 43 44 45 45 45 46 47 48 49 50 51 52 53 54 56 58 59 61 63 65 67 68 70 72 74 75 76 76 75 73 71 69 67 65 63
36 37 39 39 39 40 41 42 43 44 44 45 45 46 47 48 49 50 51 52 53 55 56 58 59 61 63 65 67 69 71 73 74 76 77 76 76 74 71 67 65 63 61 60
35 37 38 39 40 41 41 42 44 44 44 45 46 47 48 49 50 51 52 54 55 56 58 59 61 63 66 68 70 71 73 75 76 77 77 75 74 72 70 67 63 59 58 56
36 38 39 39 41 41 42 43 43 44 45 46 47 48 50 51 51 52 53 55 56 58 59 62 64 66 68 70 72 74 75 76 76 76 75 74 73 71 68 65 62 58 55 52
37 38 39 40 40 41 42 43 44 45 46 47 48 49 50 51 52 53 54 56 58 60 62 64 66 68 71 73 74 75 76 76 76 76 74 73 71 68 65 62 59 55 52 50
37 38 39 40 41 41 42 43 44 45 46 48 49 50 50 51 52 54 56 58 60 62 65 67 69 71 73 75 76 76 76 76 76 75 73 71 68 65 62 59 56 53 50 48
37 38 38 40 41 42 42 43 44 46 47 48 48 49 51 52 54 56 58 60 62 64 67 70 72 73 74 75 76 76 76 76 75 73 71 68 65 62 60 57 53 51 48 46
36 37 38 39 40 41 42 44 45 45 47 48 49 50 52 54 56 58 60 62 65 67 69 71 73 74 75 76 77 77 76 75 74 71 69 66 63 60 57 54 51 49 46 44
36 37 38 40 41 42 43 44 45 45 47 48 50 52 54 56 58 60 62 64 67 70 71 72 74 74 75 76 77 76 75 74 72 69 66 63 60 56 54 51 49 46 44 42
38 39 39 40 41 42 43 43 44 46 48 50 52 54 56 58 61 63 65 66 69 71 72 73 74 75 76 77 76 74 73 71 69 66 63 59 55 52 50 48 45 43 41 40
38 39 39 40 41 42 43 44 46 48 50 52 54 56 58 61 63 65 67 70 71 72 73 74 75 76 76 75 73 71 69 68 65 61 58 54 52 49 46 44 42 40 39 38
38 39 40 40 42 43 44 46 48 50 52 54 57 59 61 64 66 68 69 70 72 73 74 75 75 75 74 72 70 68 66 63 60 57 53 50 48 45 43 41 39 37 36 36
39 39 40 42 43 44 46 48 50 52 55 57 59 62 64 66 68 70 72 72 73 74 74 74 73 72 70 68 66 64 62 59 56 52 49 46 44 42 40 38 36 35 35 34
40 41 42 44 45 47 49 51 53 55 57 59 62 64 67 69 70 71 72 73 73 73 73 71 70 69 67 65 63 60 58 55 51 48 46 43 41 39 37 36 35 34 33 32
42 43 45 46 48 50 52 54 56 58 60 62 64 67 69 70 72 72 72 72 72 71 70 68 67 65 63 61 59 56 53 50 47 45 43 41 38 36 35 34 32 31 30 29
44 45 47 48 50 53 55 57 59 61 63 65 67 69 70 71 71 71 71 70 69 68 66 65 63 61 59 57 54 50 47 44 42 40 39 37 35 33 32 30 29 28 28 28
Wind_Direction
239 243 243 244 245 249 255 261 265 267 268 272 277 281 284 286 289 291 292 292 293 295 296 297 298 298 299 300 300 300 301 301 302 302 303 303 303 304 305 305 306 306 307 307
239 242 245 246 248 253 257 262 266 267 269 272 278 283 286 288 290 291 292 293 294 295 297 298 298 299 299 299 300 300 301 301 302 303 303 304 304 305 306 307 307 308 309 309
240 243 247 249 251 255 259 262 266 269 272 274 278 282 285 288 290 291 293 294 295 296 297 298 298 299 299 300 300 301 301 302 303 303 304 305 306 306 307 308 309 309 310 310
242 245 249 254 254 257 260 263 268 272 274 277 280 283 285 288 289 291 292 294 295 296 297 298 298 299 299 300 300 301 302 303 303 304 305 306 307 307 308 309 310 311 311 311
245 250 253 254 258 260 263 265 270 274 277 279 282 284 287 288 290 291 292 294 296 297 298 298 299 299 300 300 301 302 302 303 304 305 305 307 308 309 310 311 311 312 312 312
248 253 257 259 260 263 266 269 272 275 278 281 284 286 288 288 290 291 293 295 296 298 298 299 299 299 300 300 301 302 303 304 305 306 307 308 309 310 311 312 312 312 313 312
251 256 260 263 265 267 270 275 276 277 280 283 285 287 289 290 291 293 294 295 297 298 298 299 299 300 300 301 302 303 304 305 306 307 308 309 310 311 312 312 313 313 313 313
253 258 264 267 268 271 274 276 279 282 284 286 287 289 290 292 293 294 295 296 297 298 298 299 300 300 301 302 303 304 305 306 307 309 310 311 312 313 313 313 313 313 313 313
257 263 265 267 270 273 276 278 281 284 286 288 289 290 291 292 293 295 296 296 297 298 299 300 301 301 302 303 304 305 306 307 309 310 311 312 313 313 313 313 313 313 313 312
259 262 265 268 271 274 277 279 282 285 287 288 290 291 292 293 294 296 297 298 298 299 299 300 301 302 303 304 305 306 308 309 310 311 312 313 313 314 313 313 313 313 312 312
260 263 265 268 272 274 277 280 283 285 287 288 290 291 292 294 295 297 298 298 299 299 300 301 302 304 305 305 306 308 309 310 311 312 312 313 313 314 313 313 313 312 312 312
262 264 267 269 272 275 278 281 284 286 287 289 291 292 293 295 296 297 298 299 299 300 301 302 303 305 306 306 308 309 310 311 311 312 313 313 313 314 313 313 312 312 311 311
265 267 269 272 273 275 279 282 284 286 288 290 292 293 294 296 297 298 299 299 300 301 302 303 305 306 307 308 309 310 311 311 312 313 313 314 314 314 313 313 312 311 310 310
267 269 270 273 275 278 280 283 285 287 288 290 292 294 295 296 297 298 299 300 301 302 303 304 305 307 307 309 309 310 311 312 313 313 314 314 314 314 313 313 312 310 309 309
268 269 272 274 277 279 282 284 285 287 289 291 292 294 295 296 297 298 299 300 302 303 304 305 306 307 308 309 310 310 311 312 313 314 314 314 313 313 313 312 312 311 309 308
268 270 273 276 278 280 283 285 286 288 290 291 292 294 295 296 297 299 300 301 303 304 305 306 307 308 308 309 310 311 312 312 313 313 313 313 313 312 312 312 311 310 309 308
270 272 274 276 279 282 284 286 287 289 290 291 293 295 296 297 298 299 301 302 304 305 305 306 307 308 309 310 310 311 312 313 313 313 313 313 312 312 311 311 310 310 309 308
273 274 276 278 280 283 285 287 288 289 291 293 294 295 296 297 299 300 302 303 304 305 306 307 308 309 310 310 311 312 312 313 313 313 313 312 312 311 310 309 309 308 308 307
275 277 279 280 282 284 286 287 289 291 292 293 295 296 297 299 300 301 303 304 305 305 307 308 309 309 310 310 311 312 312 312 312 312 312 311 311 310 309 308 307 306 306 305
276 278 280 282 284 285 286 288 290 291 293 294 296 297 299 300 301 303 304 305 306 306 308 308 309 310 310 311 311 312 312 312 312 311 311 311 310 309 308 307 306 305 304 304
278 280 282 283 285 286 288 289 290 292 294 295 297 298 300 301 302 303 304 305 306 307 308 309 310 310 310 311 311 311 311 312 311 311 311 310 309 309 308 307 306 305 304 304
280 282 283 284 286 287 288 290 292 293 295 297 298 299 301 302 303 304 305 306 307 308 309 309 310 310 311 311 311 312 312 312 312 311 311 310 310 309 309 307 306 305 304 304
281 282 283 285 286 288 290 291 293 295 296 298 299 300 301 303 304 305 306 307 307 308 309 309 310 311 311 312 312 312 312 312 312 311 311 310 310 309 309 308 307 305 305 304
281 282 284 286 288 289 291 293 294 296 297 299 300 301 303 304 305 306 307 307 307 308 309 310 310 311 311 312 312 312 312 312 312 311 311 310 310 310 310 309 307 306 305 305
282 284 285 287 289 291 292 294 295 297 298 300 301 302 303 304 305 306 306 307 308 308 309 310 310 310 311 312 312 312 312 312 312 311 311 311 310 309 309 309 308 307 307 306
283 285 287 288 290 292 293 295 296 298 299 300 302 303 304 304 305 306 307 307 308 309 309 310 310 310 311 311 311 312 312 312 311 311 311 311 310 310 309 309 309 308 309 309
284 286 288 289 291 293 295 296 298 299 300 302 303 303 304 305 305 306 307 308 308 309 309 310 310 311 311 311 311 311 312 312 312 312 312 312 311 311 310 309 310 310 310 311
Height
5729 5732 5735 5738 5740 5741 5742 5743 5744 5745 5745 5743 5741 5741 5741 5739 5738 5736 5733 5730 5727 5724 5720 5717 5713 5708 5704 5699 5694 5689 5684 5679 5674 5668 5662 5656 5650 5643 5636 5629 5621 5613 5605 5596
5723 5726 5728 5731 5733 5735 5736 5737 5737 5737 5738 5737 5735 5733 5732 5730 5729 5727 5724 5721 5718 5714 5710 5706 5702 5698 5693 5688 5683 5677 5672 5667 5661 5655 5649 5642 5636 5629 5621 5613 5605 5596 5587 5578
5717 5719 5721 5724 5728 5728 5729 5730 5730 5730 5731 5729 5728 5726 5724 5721 5719 5717 5714 5711 5708 5704 5700 5695 5691 5686 5681 5676 5671 5665 5660 5654 5648 5641 5635 5628 5621 5613 5606 5597 5589 5580 5570 5559
5710 5713 5715 5721 5721 5721 5721 5722 5722 5722 5722 5721 5720 5718 5716 5713 5710 5708 5704 5701 5697 5693 5689 5684 5680 5675 5670 5664 5659 5653 5647 5641 5634 5628 5621 5614 5606 5598 5590 5581 5572 5562 5552 5541
5704 5705 5708 5712 5713 5713 5713 5715 5715 5713 5713 5712 5710 5708 5707 5704 5701 5698 5694 5690 5686 5682 5678 5673 5668 5663 5658 5652 5646 5640 5634 5628 5621 5614 5606 5599 5591 5582 5573 5564 5554 5544 5534 5523
5697 5698 5701 5706 5706 5705 5706 5707 5707 5705 5704 5703 5701 5700 5698 5694 5690 5687 5683 5679 5675 5671 5666 5661 5656 5651 5646 5640 5634 5627 5621 5614 5606 5599 5591 5583 5574 5565 5556 5546 5536 5526 5516 5505
5690 5690 5693 5697 5697 5697 5699 5699 5697 5696 5695 5693 5691 5690 5687 5683 5680 5676 5672 5668 5663 5659 5654 5649 5644 5638 5633 5627 5620 5614 5607 5600 5592 5584 5575 5567 5558 5549 5538 5529 5519 5509 5499 5488
5682 5683 5688 5689 5688 5689 5689 5688 5687 5686 5684 5683 5681 5679 5675 5672 5668 5664 5660 5656 5651 5647 5642 5636 5631 5626 5620 5613 5607 5600 5593 5585 5577 5569 5559 5550 5541 5531 5520 5510 5500 5490 5479 5470
5676 5679 5679 5679 5679 5679 5679 5678 5677 5676 5674 5672 5670 5667 5664 5661 5657 5653 5648 5644 5639 5634 5629 5624 5618 5612 5606 5599 5592 5585 5578 5570 5562 5553 5543 5533 5523 5513 5502 5491 5480 5471 5460 5452
5667 5669 5669 5669 5669 5669 5669 5668 5667 5665 5663 5661 5659 5655 5652 5649 5645 5641 5636 5631 5626 5622 5616 5611 5604 5598 5591 5584 5577 5570 5563 5554 5546 5537 5527 5517 5506 5495 5484 5473 5462 5452 5442 5433
5658 5660 5660 5660 5660 5659 5658 5657 5656 5654 5652 5650 5647 5644 5640 5636 5632 5628 5624 5619 5614 5608 5603 5597 5591 5584 5577 5569 5562 5555 5547 5538 5529 5519 5510 5500 5489 5478 5466 5455 5442 5432 5424 5415
5650 5651 5651 5651 5650 5649 5648 5647 5645 5643 5641 5638 5635 5632 5628 5624 5620 5616 5611 5606 5600 5595 5589 5583 5576 5570 5562 5554 5546 5539 5531 5522 5512 5502 5492 5481 5471 5462 5450 5437 5427 5416 5406 5398
5640 5640 5640 5640 5639 5639 5638 5636 5634 5632 5629 5626 5623 5620 5616 5612 5607 5603 5598 5592 5587 5581 5575 5569 5562 5555 5547 5539 5531 5522 5513 5504 5494 5484 5473 5463 5452 5441 5433 5425 5413 5402 5392 5383
5630 5630 5629 5629 5628 5628 5627 5625 5623 5620 5618 5615 5611 5608 5604 5599 5595 5590 5585 5579 5573 5567 5561 5554 5547 5540 5531 5523 5515 5506 5496 5486 5476 5466 5455 5444 5433 5423 5413 5405 5398 5390 5380 5370
5620 5620 5619 5619 5618 5617 5615 5613 5611 5609 5606 5603 5599 5595 5591 5587 5582 5577 5571 5566 5560 5554 5547 5539 5532 5524 5516 5507 5498 5489 5479 5468 5458 5447 5437 5426 5415 5405 5396 5387 5379 5373 5366 5358
5610 5609 5609 5608 5607 5606 5604 5602 5599 5597 5594 5590 5587 5583 5578 5574 5569 5564 5558 5552 5546 5539 5532 5524 5517 5508 5499 5490 5481 5471 5461 5450 5439 5429 5419 5408 5398 5388 5379 5371 5363 5356 5350 5343
5599 5599 5598 5597 5596 5594 5592 5590 5588 5585 5581 5578 5574 5570 5565 5561 5556 5550 5544 5538 5531 5524 5516 5508 5500 5491 5482 5472 5462 5453 5443 5433 5422 5411 5401 5390 5381 5372 5363 5355 5348 5342 5336 5329
5589 5588 5587 5586 5585 5583 5581 5578 5576 5572 5569 5565 5561 5557 5552 5547 5542 5537 5531 5524 5517 5509 5500 5491 5483 5474 5464 5453 5443 5434 5424 5414 5404 5393 5383 5374 5364 5356 5348 5340 5334 5327 5322 5316
5578 5577 5576 5575 5573 5571 5569 5566 5563 5560 5556 5553 5549 5544 5539 5534 5528 5522 5516 5509 5501 5493 5485 5475 5466 5456 5446 5436 5425 5416 5405 5395 5385 5376 5366 5357 5348 5340 5332 5325 5319 5313 5308 5303
5568 5567 5565 5564 5562 5560 5557 5554 5551 5548 5544 5540 5536 5531 5526 5520 5513 5507 5501 5493 5484 5475 5467 5458 5448 5438 5428 5418 5407 5397 5387 5377 5367 5358 5349 5340 5332 5325 5317 5311 5305 5300 5295 5290
5557 5556 5554 5552 5550 5548 5545 5542 5539 5535 5531 5527 5522 5517 5511 5505 5498 5491 5484 5477 5469 5458 5449 5440 5429 5419 5409 5399 5389 5379 5368 5358 5349 5340 5332 5324 5317 5310 5303 5297 5292 5287 5282 5278
5546 5545 5543 5541 5539 5536 5533 5530 5526 5522 5518 5513 5508 5502 5496 5490 5483 5476 5467 5458 5450 5441 5432 5422 5411 5401 5390 5380 5371 5361 5351 5341 5332 5324 5316 5309 5302 5296 5290 5284 5279 5275 5271 5267
5535 5533 5531 5529 5527 5524 5521 5517 5513 5509 5504 5499 5493 5487 5480 5474 5466 5458 5452 5442 5432 5423 5413 5403 5393 5383 5372 5363 5353 5344 5335 5326 5317 5309 5302 5295 5289 5283 5278 5273 5268 5264 5260 5256
5524 5522 5520 5517 5515 5512 5509 5504 5500 5495 5490 5484 5477 5470 5463 5457 5450 5440 5431 5423 5414 5404 5395 5385 5375 5365 5355 5346 5337 5328 5320 5311 5303 5296 5289 5283 5277 5272 5267 5262 5258 5254 5250 5246
5512 5510 5508 5505 5502 5499 5495 5491 5486 5481 5475 5469 5462 5454 5446 5438 5431 5423 5414 5405 5395 5386 5377 5368 5358 5348 5339 5330 5322 5314 5305 5298 5290 5284 5278 5272 5267 5262 5257 5252 5248 5244 5240 5237
5500 5498 5495 5492 5489 5485 5481 5476 5471 5465 5459 5453 5447 5438 5429 5421 5412 5404 5395 5387 5377 5368 5359 5350 5341 5332 5324 5315 5307 5299 5292 5285 5278 5272 5266 5261 5256 5252 5247 5243 5239 5235 5232 5228
5488 5485 5482 5479 5475 5470 5466 5461 5455 5449 5442 5435 5429 5421 5412 5403 5394 5386 5377 5369 5360 5351 5342 5334 5325 5317 5309 5301 5293 5286 5280 5273 5267 5262 5256 5252 5247 5243 5239 5235 5231 5228 5224 5220